Theta_e
357 358 359 358 360 359 359 360 359 359 359 359 358 358 359 359 358 358 361 359 360 360 361 362 364 363 362 364 363 365 367 366 367 368 367 365 365 365 367 368 367 365 366 366 364 363 363 361 361 361 360 357 357 357 355 356 356 354 354 353 350 353 350 348 343 342 349 354 350 348 350 352 347 352 351 350 354 357 350 354 357 354 353 354 354
357 358 358 359 359 359 359 359 359 359 358 358 358 358 359 359 360 360 359 360 360 359 361 361 363 363 362 364 365 366 368 368 366 367 366 365 364 363 363 364 364 366 367 366 366 364 364 363 361 361 361 358 358 356 357 355 355 353 353 352 351 352 355 349 346 345 343 350 352 354 352 353 349 353 352 349 349 354 355 355 354 355 354 354 354
356 358 358 359 359 359 359 359 359 359 357 357 356 356 358 359 360 359 358 358 360 360 360 360 363 364 363 363 365 365 367 367 367 367 366 366 365 364 364 365 364 363 364 365 365 366 363 363 362 363 361 359 358 358 358 357 356 355 354 355 354 353 355 354 349 346 346 347 353 351 352 354 351 351 354 354 354 353 352 353 351 352 354 353 352
355 358 358 358 359 359 359 359 358 357 356 356 356 356 356 358 359 358 358 357 358 361 361 361 363 364 362 363 364 364 365 365 366 366 366 366 366 366 366 365 365 364 364 365 365 365 364 363 362 362 362 360 360 359 359 358 357 357 356 357 357 355 356 356 353 349 348 346 351 351 353 352 353 355 355 354 351 350 351 352 353 352 351 352 353
354 356 356 355 356 358 358 358 357 357 356 356 356 356 356 357 358 358 357 356 358 360 361 362 362 363 360 361 362 363 363 364 365 364 365 366 366 366 366 366 365 364 364 365 365 366 365 363 363 364 363 361 361 360 361 360 359 358 357 358 357 357 356 356 355 354 350 348 349 353 355 355 355 355 354 350 351 353 355 354 352 352 354 353 350
354 354 354 354 356 357 358 357 357 356 356 356 356 356 356 357 357 357 358 357 358 358 360 360 361 362 362 362 363 364 364 365 365 365 363 365 366 365 366 366 364 365 365 364 364 365 365 365 364 364 363 361 361 361 362 362 361 359 358 358 358 358 357 356 356 354 353 351 351 350 354 352 353 355 357 356 352 350 350 352 355 356 354 351 350
354 354 354 354 356 356 357 357 357 356 357 357 357 357 356 356 357 357 358 358 357 357 358 359 361 361 362 362 361 363 364 364 365 366 365 365 365 365 363 364 365 365 365 364 365 365 365 365 365 364 363 363 362 362 363 362 360 361 360 360 359 358 356 356 355 354 353 351 351 352 351 354 353 351 355 358 355 352 348 348 348 351 354 353 350
354 354 354 354 357 357 358 358 358 358 358 359 358 357 357 357 358 358 359 358 357 357 356 357 359 360 361 362 362 363 364 364 365 366 365 364 364 365 365 363 363 364 365 366 365 364 365 365 364 365 365 365 364 364 364 363 363 361 362 361 360 357 356 356 354 353 352 351 350 349 351 351 353 355 355 355 352 351 351 348 344 345 345 348 349
355 354 355 355 357 359 359 359 360 360 359 360 359 358 358 358 358 358 359 358 358 358 358 357 359 359 360 361 362 362 362 362 363 364 364 364 365 363 364 364 363 363 364 364 364 365 364 364 365 365 366 365 355 353 355 356 363 361 363 362 359 358 356 355 354 353 352 351 350 351 351 351 351 352 351 352 351 351 354 351 346 345 344 342 344
355 354 354 356 359 360 360 360 360 360 359 359 359 359 358 358 357 358 358 358 359 360 360 359 358 358 359 361 362 362 361 362 355 341 346 363 364 363 363 364 364 363 363 363 363 363 364 364 363 364 356 353 348 341 335 335 337 352 362 364 361 360 358 356 354 354 353 351 350 349 349 349 350 353 353 355 356 356 351 350 343 343 344 343 343
354 354 355 358 359 360 360 360 360 359 359 359 359 359 358 358 358 359 358 359 359 360 359 358 358 358 358 359 360 360 361 360 340 333 333 337 357 364 363 364 365 364 363 364 363 362 363 364 365 365 362 351 353 338 335 332 332 330 331 335 346 359 358 355 355 356 354 353 353 353 352 352 352 355 356 356 356 353 351 347 344 344 340 339 338
353 355 357 359 359 359 358 359 359 359 359 359 359 359 358 358 358 359 358 358 359 360 359 359 359 358 358 358 358 359 360 346 333 331 331 330 338 361 362 362 362 363 362 362 362 363 362 362 363 364 365 365 365 365 349 336 330 329 328 328 329 330 335 353 356 355 356 354 354 355 355 353 354 357 357 357 356 350 344 343 342 342 342 340 341
353 356 357 357 358 359 359 359 358 358 359 359 359 360 359 358 358 358 357 358 359 359 359 358 359 359 359 359 357 358 359 341 331 329 329 328 328 342 360 362 361 362 362 362 362 363 364 363 363 364 363 362 362 364 366 366 337 327 327 327 327 326 327 326 329 350 358 356 354 353 354 356 355 357 359 359 359 341 340 341 344 345 345 342 343
354 355 356 357 358 359 359 358 357 358 359 359 359 359 358 358 357 357 357 358 358 358 358 359 359 360 360 360 360 360 360 343 329 327 326 326 327 333 359 360 361 361 362 363 362 363 363 363 363 363 365 366 367 365 366 366 367 365 359 355 355 349 330 324 323 323 332 348 354 353 358 361 357 360 362 360 355 342 339 341 345 346 345 344 350
355 356 356 357 358 358 358 358 358 358 359 359 359 358 357 358 357 356 356 356 358 358 357 358 359 360 359 359 360 359 360 337 325 324 323 322 324 328 357 359 360 361 361 362 364 363 364 364 364 363 365 366 367 366 367 366 366 363 363 362 361 362 364 363 355 349 346 345 348 353 356 359 360 360 360 360 359 349 345 345 347 347 348 351 349
356 356 356 356 356 357 357 358 358 358 358 358 357 357 358 358 358 357 357 356 358 358 358 358 358 359 359 359 358 358 359 333 325 323 321 321 323 344 356 359 359 359 361 362 363 365 365 364 364 364 365 365 354 338 346 366 365 362 361 361 361 362 363 355 344 346 359 360 358 355 356 355 338 351 351 349 351 352 345 345 345 344 342 341 339
353 356 355 355 355 356 356 357 357 358 358 357 356 356 357 358 359 359 357 357 356 356 358 357 359 358 358 359 358 358 359 340 324 321 319 319 325 351 356 358 359 360 360 362 363 364 364 365 366 364 364 366 349 335 330 334 362 361 360 360 360 361 359 362 345 331 328 328 328 328 324 321 322 322 321 320 333 338 342 339 338 342 339 336 337
355 357 355 355 356 356 357 357 357 357 357 356 356 356 357 358 358 359 357 356 355 357 358 358 359 359 358 358 358 358 359 342 320 319 318 317 331 354 357 358 359 360 360 362 363 363 364 357 363 365 365 365 341 331 329 340 359 361 360 358 358 357 358 361 362 361 334 322 321 320 321 323 322 321 322 321 321 324 345 342 345 345 341 341 338
355 355 355 356 357 357 358 358 357 356 356 356 356 356 357 358 358 359 357 357 357 359 359 358 358 360 359 358 350 355 359 346 318 319 316 315 331 357 358 358 358 359 359 360 363 363 365 360 351 352 356 354 334 330 327 339 360 361 360 358 356 356 357 361 360 362 363 357 357 358 355 342 356 359 355 332 326 329 347 348 346 344 339 339 340
357 357 357 358 359 359 359 359 358 357 357 357 358 358 359 358 358 358 358 358 357 358 358 358 358 359 359 359 358 358 358 360 345 316 316 314 319 355 360 357 356 357 359 359 359 362 363 364 356 332 328 328 327 324 323 322 354 361 361 358 356 356 360 359 354 352 353 354 354 354 354 355 351 350 350 349 347 348 348 347 347 345 343 341 341
360 359 359 357 358 358 358 359 358 357 358 358 358 358 359 358 358 358 357 357 358 358 358 359 358 358 359 360 359 359 359 359 361 315 315 313 315 328 358 358 358 358 359 358 358 358 360 361 362 342 325 323 321 318 317 315 325 356 359 359 361 355 342 351 345 344 347 349 350 347 346 346 346 345 343 344 342 343 342 343 343 342 341 338 336
360 359 359 357 357 357 357 359 359 358 359 360 359 359 360 360 359 359 358 358 358 358 359 358 358 357 359 359 360 360 359 349 361 322 315 313 313 316 350 359 358 359 358 359 358 358 359 360 363 350 326 321 319 316 314 315 315 342 354 333 325 323 347 339 340 340 343 344 344 342 342 341 340 340 340 340 339 339 341 341 340 340 340 340 337
360 360 360 358 358 358 358 359 358 358 359 361 361 359 360 360 360 361 360 359 359 358 359 358 358 357 358 359 359 360 362 360 337 348 316 313 311 312 322 341 335 360 357 357 358 359 361 363 363 349 322 314 313 312 312 311 317 336 324 319 316 316 329 339 340 341 343 343 342 341 339 340 339 338 338 339 338 341 339 340 339 339 340 340 339
362 360 360 359 359 358 359 359 359 359 361 361 360 360 360 360 360 361 360 358 358 357 356 357 356 355 355 355 358 359 362 362 343 335 336 313 312 310 313 318 328 352 358 357 359 360 360 363 358 318 313 308 308 309 309 314 340 316 311 313 316 324 339 341 340 343 342 339 339 340 340 339 339 337 337 339 338 340 339 338 338 338 338 338 338
360 359 358 359 360 359 359 359 359 359 360 360 359 359 360 360 359 360 360 358 357 356 355 357 355 355 355 355 357 359 360 360 362 345 331 319 313 311 312 314 316 321 351 357 359 361 343 320 308 306 306 304 305 307 309 315 309 310 312 316 329 338 341 342 342 342 342 341 338 339 339 339 338 339 340 340 340 339 339 338 339 338 338 337 337
360 359 359 360 359 359 359 359 360 361 361 361 360 360 360 359 359 360 359 358 358 357 356 356 355 356 356 357 357 359 360 361 361 361 341 332 322 315 314 314 317 319 332 350 333 320 311 309 308 308 310 315 333 341 341 335 316 317 317 324 339 339 339 338 340 341 340 338 337 337 337 338 338 339 340 339 338 337 337 335 334 334 334 332 330
359 360 360 359 361 361 360 359 360 361 363 362 362 362 361 361 361 359 359 357 358 357 357 356 355 355 355 357 358 359 360 360 360 360 358 353 347 338 326 327 320 322 329 340 335 336 326 331 332 325 324 322 328 328 328 325 328 329 331 335 338 337 337 340 339 340 340 338 337 337 337 338 338 339 338 337 337 338 338 334 332 331 331 330 329
358 359 359 359 360 361 361 362 362 361 362 362 361 361 361 362 361 360 358 359 357 356 356 355 355 356 356 357 359 359 359 359 360 359 358 356 354 352 345 340 339 337 338 343 347 346 339 322 323 336 335 336 335 335 334 334 333 333 336 336 336 337 334 328 330 339 340 338 337 338 337 338 337 335 335 335 335 335 336 332 330 329 329 329 327
363 364 363 362 362 362 363 363 362 362 363 364 367 369 368 363 362 362 363 364 362 360 360 359 358 360 360 360 359 359 360 360 360 339 358 336 351 356 352 347 346 343 337 328 346 342 341 340 340 339 339 337 335 334 332 332 333 335 336 337 337 337 338 338 338 338 338 337 336 336 334 335 334 335 334 333 333 332 335 332 332 330 329 328 325
362 363 364 364 365 363 363 363 362 362 363 364 353 337 308 299 313 359 367 351 340 333 336 361 364 363 361 363 365 362 361 363 337 322 322 319 319 323 327 326 325 337 322 319 335 343 343 343 341 339 337 336 332 331 331 333 333 333 335 329 335 336 336 336 336 335 337 335 335 334 334 333 333 333 332 330 331 332 332 327 331 331 327 325 324
360 360 361 361 359 363 362 363 365 366 366 361 355 349 345 336 301 296 305 315 324 322 318 321 327 335 360 365 360 338 334 334 321 313 312 311 310 310 314 310 309 307 311 336 342 344 342 341 339 339 336 334 333 333 333 332 331 332 332 334 335 333 332 334 334 333 334 336 334 333 333 332 332 331 329 329 328 329 331 331 330 330 328 326 324
362 360 360 362 358 361 363 364 364 363 358 357 355 352 351 349 344 307 296 300 304 306 310 311 311 311 317 337 354 356 325 312 308 306 308 308 307 304 301 301 302 306 310 319 343 343 342 341 338 337 336 334 332 332 331 332 333 334 334 334 334 334 334 334 332 335 334 335 332 331 332 332 331 329 329 328 326 329 329 329 328 327 326 327 326
366 365 364 363 359 360 361 363 361 358 354 353 353 354 353 351 350 345 328 300 295 295 294 294 296 303 307 308 317 329 328 313 302 303 302 300 299 299 300 300 302 303 311 334 344 340 341 340 337 335 333 332 332 332 334 333 334 335 336 335 333 334 334 334 332 334 334 330 332 331 331 331 329 329 327 328 328 328 328 327 328 327 326 326 325
367 366 365 363 362 361 361 361 359 357 356 355 354 354 354 355 355 350 344 340 335 318 304 297 296 300 298 300 306 300 298 298 298 298 298 298 298 300 303 310 302 307 321 343 342 339 338 336 334 334 334 334 334 334 335 336 335 335 334 334 334 334 334 333 335 334 332 333 333 330 331 331 329 331 330 330 330 329 329 327 327 326 326 325 325
362 357 357 360 362 361 360 358 358 357 355 355 353 352 354 354 354 350 349 348 348 346 343 327 304 296 311 304 295 296 297 297 298 298 299 300 302 303 309 329 333 333 336 338 337 335 333 331 331 331 332 333 334 334 334 334 333 333 332 332 332 332 332 333 333 334 333 333 332 331 331 331 332 329 329 330 329 328 328 327 326 325 326 325 325
360 361 360 357 359 359 359 359 358 356 355 354 355 354 354 351 350 351 351 351 350 335 323 315 312 305 297 295 295 296 297 298 299 300 301 303 305 312 332 332 333 333 329 328 328 328 330 329 329 330 331 331 332 332 333 331 330 330 331 331 330 332 333 333 332 334 334 334 331 330 329 333 330 329 330 329 329 327 327 328 327 325 325 325 327
355 355 356 358 357 357 357 356 356 356 347 350 354 352 351 350 351 352 350 346 338 332 325 318 318 315 311 311 303 298 298 300 301 301 302 303 307 326 334 333 329 327 325 326 326 326 326 327 329 329 329 329 330 330 330 330 329 329 325 330 331 331 333 332 331 331 332 332 332 332 333 332 331 331 329 329 327 327 327 327 327 325 325 323 321
351 351 352 353 355 353 351 350 347 339 346 348 351 352 350 350 348 346 342 337 332 328 325 324 322 320 316 314 318 316 311 305 307 308 310 312 323 329 328 328 329 327 326 326 327 327 327 327 328 328 328 329 330 330 330 329 330 330 330 329 330 329 321 328 328 332 332 332 331 331 330 331 331 330 327 328 327 327 326 326 326 327 327 324 323
342 328 327 331 338 351 349 345 344 345 345 345 347 346 343 341 341 339 337 334 331 329 329 326 323 319 318 320 322 326 327 328 326 324 325 326 327 328 329 329 328 327 327 327 327 327 328 327 327 328 329 329 329 330 329 329 330 329 329 330 331 332 332 333 333 333 332 331 331 331 331 331 331 330 329 329 327 327 328 327 326 326 325 325 324
343 343 336 331 340 341 345 345 341 339 338 338 338 339 338 336 334 333 332 331 329 328 326 322 320 320 323 327 329 330 326 325 325 325 325 324 324 325 326 327 327 327 327 327 328 328 327 327 327 327 327 328 328 328 328 329 329 328 329 330 330 330 331 332 332 332 331 331 332 332 331 332 331 331 331 328 327 328 328 326 325 326 326 325 324
342 341 339 333 335 342 340 339 338 337 337 337 336 334 332 332 332 331 330 328 325 324 322 322 321 320 318 314 310 315 326 324 324 325 324 323 323 323 324 325 325 325 326 326 326 326 324 323 323 323 324 325 326 327 327 328 329 330 329 329 329 329 330 331 332 332 332 332 332 332 333 333 332 331 328 328 323 325 328 327 326 324 323 324 324
342 340 340 339 338 340 338 336 335 335 334 333 332 331 331 330 329 326 324 323 322 320 319 318 317 316 310 306 305 307 321 322 322 321 320 318 317 317 317 317 319 321 323 323 324 323 322 321 322 323 323 322 324 322 323 323 324 325 326 328 328 329 329 329 330 330 330 330 332 332 333 332 330 330 331 322 330 329 328 327 326 326 325 323 323
338 337 337 338 338 336 334 333 334 333 332 330 329 329 327 326 325 324 323 323 321 320 319 319 319 319 316 309 310 310 318 318 317 316 316 314 312 312 311 311 312 313 314 315 316 316 315 315 315 314 314 314 315 315 315 315 317 318 319 320 321 322 322 322 323 323 324 326 328 329 332 332 331 331 331 329 330 329 329 330 328 328 326 327 326
334 333 331 330 330 329 329 329 327 327 327 327 327 326 326 326 325 324 323 322 322 321 320 319 319 318 316 313 312 314 313 312 311 311 311 311 310 309 309 308 309 309 310 311 312 314 314 313 312 312 312 312 312 312 312 312 313 313 314 315 315 314 317 317 318 318 318 320 323 325 328 328 328 329 327 329 329 328 328 327 328 327 326 327 326
333 331 329 327 325 324 323 323 323 323 324 324 323 323 323 323 322 322 321 319 318 317 317 317 317 317 316 315 313 311 310 310 310 309 308 307 306 306 307 308 309 309 309 310 311 312 312 312 313 312 311 311 311 311 310 311 311 311 311 311 313 312 312 313 314 314 315 318 321 324 324 326 325 325 325 326 327 328 326 327 327 324 327 326 326
329 328 325 323 321 320 320 319 320 319 319 318 317 317 318 318 318 318 317 316 316 315 315 314 313 311 310 309 308 308 307 307 307 307 307 306 305 305 306 307 307 307 307 307 308 309 309 310 310 310 310 310 310 310 309 309 309 309 309 309 309 308 309 310 311 312 314 317 319 320 322 322 323 322 321 323 323 323 324 325 327 326 326 325 326
326 324 322 321 320 319 319 318 317 317 316 315 315 314 313 313 313 313 313 313 313 313 311 311 309 309 308 307 306 306 306 305 305 305 305 304 304 304 304 305 305 305 305 306 306 306 307 307 308 308 309 309 309 308 308 308 309 308 308 307 306 305 306 305 307 312 315 316 318 320 320 319 319 319 319 320 321 322 323 322 322 323 324 325 323
324 322 320 319 318 317 317 316 315 315 314 313 313 312 311 311 310 310 310 310 309 309 308 307 306 306 306 306 306 305 305 304 304 304 303 303 303 303 303 302 302 302 303 303 303 304 304 304 304 305 305 306 306 306 305 305 304 304 304 305 302 299 296 295 307 313 314 314 317 320 319 317 317 317 317 318 319 319 319 319 320 320 321 321 320
316 315 313 312 313 314 314 313 313 312 311 311 310 310 310 309 309 309 309 308 307 307 306 305 304 305 305 305 305 305 304 304 303 303 303 303 303 303 302 302 302 301 300 300 300 300 300 300 301 301 301 302 302 303 303 302 301 301 301 300 297 291 289 291 299 307 300 311 318 318 318 316 315 315 315 316 316 317 317 318 319 318 320 320 320
311 311 310 309 308 308 308 308 308 308 308 308 307 306 306 306 305 305 306 306 305 305 305 304 303 303 304 304 304 303 303 303 303 303 302 302 302 302 301 301 300 300 299 298 298 299 299 299 298 298 298 298 298 299 299 298 298 297 297 295 290 288 288 289 294 295 302 314 316 316 316 315 316 314 314 315 315 314 313 314 315 316 315 317 318
308 307 307 306 305 305 304 303 303 303 302 302 302 302 302 302 302 302 302 302 302 302 302 302 302 302 302 302 303 302 301 301 301 301 300 300 300 301 300 300 299 299 298 298 298 298 298 298 298 298 298 297 297 297 296 296 295 294 292 290 289 289 289 291 299 293 293 298 315 315 315 314 315 315 314 314 313 312 311 313 312 313 314 314 315
Wind_Speed
18 16 15 15 15 16 16 15 16 14 14 14 13 13 12 12 12 11 10 10 10 10 11 11 10 10 10 9 10 9 8 8 8 7 7 8 9 8 8 7 8 7 7 8 7 6 6 7 7 6 5 6 5 5 5 6 5 5 5 5 6 5 6 7 9 12 9 6 7 8 7 6 9 7 8 8 7 5 8 8 9 8 8 8 9
18 17 16 15 17 17 17 15 15 14 15 14 14 13 12 12 11 10 11 11 10 11 11 10 10 10 10 10 10 9 8 9 9 8 8 8 9 8 9 10 10 9 8 8 8 6 6 7 8 7 6 7 6 6 6 6 6 6 6 6 7 7 6 7 9 9 13 7 7 6 7 6 8 7 8 9 9 7 7 7 7 8 8 8 8
18 16 16 16 18 17 16 15 15 16 17 15 16 15 13 13 11 12 12 11 10 11 11 11 10 10 10 10 10 10 9 9 9 9 9 9 9 9 8 9 9 9 10 9 9 7 8 8 8 7 5 6 7 7 7 7 7 7 8 7 7 8 7 8 8 10 12 12 7 9 7 6 7 8 7 7 7 8 9 9 9 7 7 9 9
18 17 17 17 17 16 16 15 17 17 17 15 16 16 14 13 12 13 13 11 11 10 11 11 10 10 10 10 10 10 10 9 9 9 10 10 10 10 9 9 9 9 10 9 9 8 9 8 8 8 7 7 7 7 7 7 7 7 7 7 7 8 7 7 8 9 9 12 9 8 8 8 8 7 6 7 8 8 8 9 9 9 9 8 9
18 18 19 19 18 17 17 16 17 18 18 15 17 17 15 13 12 14 13 12 12 11 10 10 10 10 11 12 11 11 11 10 10 10 9 9 10 10 10 9 10 10 10 10 9 9 9 9 9 7 7 8 8 8 8 8 7 7 7 7 7 7 6 7 8 8 9 11 11 8 8 8 8 8 8 9 7 7 8 9 9 9 9 10 10
19 18 19 19 17 18 18 17 18 19 18 17 17 16 15 14 13 13 13 13 13 12 11 11 11 12 12 11 11 11 10 10 10 11 11 10 9 10 9 10 10 10 10 10 10 10 9 9 9 8 9 9 9 8 8 9 7 8 9 8 7 6 7 8 8 8 9 11 10 11 8 9 8 7 6 6 7 8 8 8 8 7 8 10 10
18 18 19 19 17 18 17 17 17 18 17 16 14 14 15 15 14 14 13 14 13 12 12 13 11 12 12 12 12 11 11 11 10 10 10 10 10 10 10 10 10 9 10 11 10 10 10 9 9 9 10 10 10 9 8 9 9 9 9 9 8 7 8 8 8 9 10 11 10 10 10 8 8 9 6 5 6 6 9 9 8 6 7 8 8
18 18 18 18 16 17 17 17 16 16 15 14 14 14 14 14 14 13 13 14 14 14 14 14 12 12 12 12 12 11 11 11 11 11 10 11 10 10 10 10 10 10 10 10 10 10 10 10 10 10 10 10 10 9 9 9 8 9 8 8 8 9 9 9 10 11 12 12 12 12 11 10 8 8 6 5 7 7 7 7 9 8 9 8 9
18 18 17 17 16 16 15 15 14 14 14 14 14 14 14 14 13 13 13 13 12 14 14 14 13 13 13 12 12 11 11 11 10 10 11 11 11 11 10 11 11 10 10 10 10 10 10 10 10 10 10 10 11 10 10 8 7 9 8 8 9 10 11 11 11 11 11 12 12 12 11 10 10 10 9 7 7 8 4 4 7 10 9 8 9
17 18 18 17 14 14 14 13 13 14 14 14 14 14 14 13 14 14 14 14 13 12 13 13 13 13 13 12 12 11 11 10 11 14 12 10 10 10 9 10 11 10 10 10 10 11 11 11 10 11 11 12 12 14 14 14 13 12 10 8 10 10 10 10 11 11 11 12 12 12 13 12 12 10 11 8 7 6 6 5 9 11 6 8 12
17 17 17 16 14 14 13 13 13 14 14 13 14 14 14 13 13 13 13 13 14 12 12 13 13 13 13 13 13 12 11 10 14 15 15 14 11 10 10 10 10 11 11 10 10 11 10 10 10 10 11 12 13 15 14 15 16 16 17 15 12 13 13 13 11 11 11 12 12 12 11 13 14 13 11 11 7 8 3 6 7 6 10 10 12
18 17 15 14 15 15 14 14 14 14 13 14 14 14 14 14 13 13 13 14 13 12 13 14 13 13 12 13 14 13 12 13 14 15 15 16 13 11 10 10 10 10 11 11 10 10 10 10 10 8 9 11 10 10 13 17 17 16 17 16 16 17 16 14 14 14 14 14 13 11 11 14 14 12 12 11 8 4 5 7 6 8 10 11 12
17 15 15 15 15 15 14 15 15 15 15 15 14 13 14 14 14 14 15 14 12 13 14 13 14 13 13 13 14 14 13 13 15 16 16 16 16 14 11 11 11 11 11 11 11 10 9 9 10 9 9 11 10 12 11 10 14 18 18 17 16 16 18 19 17 16 15 17 17 17 14 15 16 15 13 10 1 5 12 14 9 8 8 14 15
16 16 15 15 15 15 15 15 15 16 15 15 14 14 15 15 15 14 13 13 13 13 14 15 13 13 14 14 13 13 13 12 17 17 16 17 17 14 13 13 13 13 12 11 10 11 11 11 10 10 10 10 9 11 11 11 10 9 9 9 10 14 17 19 20 21 18 14 16 19 16 12 14 14 12 10 9 6 7 15 13 10 13 17 16
15 15 15 15 15 15 16 16 16 15 15 15 14 15 15 14 15 14 13 14 14 14 14 14 13 13 14 14 13 13 13 13 16 18 17 18 18 14 12 13 13 13 13 14 13 12 12 11 11 12 11 10 9 10 10 10 10 11 12 14 13 14 13 12 12 11 11 12 13 15 16 13 13 13 11 11 11 7 9 14 15 14 17 19 18
15 15 15 16 16 16 16 16 15 15 15 15 15 15 14 14 15 13 13 13 12 12 12 13 14 15 15 15 14 14 14 16 17 18 19 18 18 10 10 12 13 13 13 14 13 11 12 12 11 12 12 12 12 13 12 10 11 13 14 14 13 13 12 12 14 14 13 11 10 13 13 11 8 10 12 8 5 6 9 11 13 15 17 17 17
16 16 17 17 17 17 17 16 16 15 15 15 16 15 15 14 14 12 13 13 12 13 13 14 13 14 15 14 15 14 13 13 18 18 18 18 13 10 10 11 11 13 14 13 12 13 12 12 12 11 12 12 13 13 14 11 10 13 14 15 13 13 14 14 14 14 15 17 18 16 13 14 17 18 17 16 11 8 8 8 12 12 12 13 15
16 16 17 17 17 17 16 16 16 16 15 16 16 15 15 13 14 13 14 14 14 13 13 13 13 13 15 15 15 15 14 12 18 18 18 19 16 11 10 10 12 12 13 13 12 12 13 15 13 13 13 13 13 13 13 10 9 12 13 14 14 13 14 13 12 11 10 9 7 10 12 13 15 15 15 15 14 9 8 13 14 11 13 14 15
16 17 17 16 16 16 15 15 16 16 16 16 15 15 15 14 13 12 13 13 13 11 12 12 12 12 14 15 14 16 14 11 17 18 19 19 16 10 11 10 12 14 12 12 11 11 11 11 15 15 14 14 14 12 11 10 10 10 12 13 13 13 13 13 13 11 6 5 8 10 10 10 10 10 9 12 13 12 11 12 11 11 13 13 14
17 15 15 15 15 15 14 15 15 16 15 15 14 14 12 13 14 13 13 12 12 12 12 12 13 12 12 14 13 15 15 13 13 20 19 19 20 12 10 12 15 14 12 12 11 12 11 11 11 16 19 19 18 14 9 11 10 11 11 12 11 13 10 3 4 7 9 4 5 9 11 10 9 8 8 7 6 5 6 8 9 9 11 12 13
13 14 14 15 15 15 14 15 16 16 15 15 14 13 12 13 12 12 13 12 11 11 13 12 12 12 12 12 13 14 13 14 11 20 19 21 21 17 11 13 13 12 11 11 11 11 10 10 11 12 18 19 18 16 14 13 11 10 11 12 12 3 5 3 3 6 9 12 9 7 7 7 7 7 7 6 6 6 6 7 8 9 10 12 13
12 13 13 14 15 16 15 14 15 14 14 12 12 11 11 12 11 12 12 11 13 13 12 11 11 11 11 12 12 13 12 14 11 16 20 20 21 23 13 13 13 12 12 11 11 11 11 9 9 10 15 15 16 15 15 13 13 7 10 9 7 7 2 3 2 2 5 6 7 8 8 8 8 7 7 7 7 7 8 8 9 10 10 10 12
13 13 13 14 14 15 14 15 14 12 12 13 13 12 11 12 12 12 12 12 12 13 13 13 13 11 11 10 11 13 12 10 16 12 18 20 21 21 21 16 15 12 12 12 12 10 10 9 9 8 11 12 12 12 11 8 6 7 4 3 7 8 5 3 4 4 4 4 5 5 6 6 7 7 7 8 8 8 9 9 10 11 10 10 11
12 13 13 13 13 14 14 15 14 13 13 12 13 12 12 12 12 11 12 12 11 13 14 14 13 13 14 14 13 13 12 11 12 17 14 21 19 21 22 22 17 12 13 12 11 10 9 9 5 10 9 10 8 7 7 8 3 7 6 6 6 5 3 3 3 3 3 3 4 4 4 5 6 6 7 8 9 9 10 10 10 11 11 11 13
12 13 13 13 13 13 13 13 14 14 13 13 13 12 13 12 12 12 13 13 13 14 13 12 13 13 14 14 13 13 13 12 10 13 18 17 20 20 21 22 20 18 13 12 11 8 2 8 11 10 9 9 10 9 6 4 6 8 7 7 4 3 3 3 3 2 3 3 2 3 4 4 5 6 7 9 10 10 9 9 10 11 11 12 13
12 13 13 13 14 14 14 14 15 14 14 12 13 13 13 13 12 12 13 13 13 13 13 13 13 13 13 13 13 13 12 10 10 9 12 14 15 19 21 21 20 20 18 4 4 6 9 9 11 11 10 9 7 5 5 5 5 6 5 4 4 4 4 3 2 2 1 1 2 3 4 4 5 6 8 8 8 7 8 9 10 10 10 12 14
11 11 12 13 13 14 14 13 12 13 13 12 12 12 12 11 12 12 12 13 14 14 13 14 14 13 13 13 13 13 12 10 9 9 9 10 9 11 12 12 14 9 7 7 4 4 7 7 6 7 8 7 7 8 8 7 5 4 4 4 3 3 3 3 2 1 1 1 2 3 4 5 5 7 7 7 8 7 7 8 9 11 11 13 14
13 13 14 12 12 13 13 14 14 11 13 13 12 12 12 12 13 13 13 13 13 14 15 14 14 14 13 12 11 11 11 11 10 10 10 11 10 10 9 9 9 9 9 9 9 7 7 8 9 7 8 7 6 5 4 4 4 4 4 4 3 3 2 3 1 1 0 1 2 3 4 4 5 5 7 7 7 7 8 9 10 11 11 12 12
11 11 11 11 11 11 11 11 12 11 11 12 9 5 8 12 13 12 12 13 14 14 13 13 13 13 12 11 10 9 9 10 10 12 12 12 12 10 9 9 9 9 10 11 9 8 8 7 7 6 6 7 6 5 5 5 5 5 5 4 4 4 4 4 2 2 1 1 1 3 4 4 5 5 6 7 7 8 7 9 9 10 11 11 12
7 8 8 8 8 9 9 10 11 11 11 10 7 3 7 8 6 3 9 14 15 14 10 11 11 11 11 10 9 10 10 10 10 14 13 13 14 13 13 12 11 8 13 15 11 9 10 8 7 8 7 7 7 7 7 7 7 6 5 4 4 4 3 3 2 2 1 1 1 2 3 4 4 5 6 6 8 8 8 9 8 9 10 11 13
7 7 7 8 8 8 8 8 8 8 7 7 7 7 5 4 10 9 9 8 3 8 9 10 9 9 8 8 7 4 5 1 7 14 14 14 14 10 7 11 14 16 18 13 9 9 11 10 8 7 7 7 7 8 7 7 7 6 6 5 4 4 3 3 3 1 1 0 0 1 2 3 4 5 5 6 7 8 8 7 8 8 9 10 12
7 7 7 6 7 7 7 7 7 6 5 6 7 7 7 7 4 9 11 7 7 5 5 6 7 9 10 10 5 2 1 2 9 11 12 9 10 11 12 13 14 17 17 14 10 11 9 9 8 8 8 7 6 6 6 6 6 6 6 6 5 3 3 3 2 0 1 0 0 2 3 3 3 4 4 4 6 6 7 7 7 8 9 8 9
7 7 6 6 6 7 7 7 7 7 7 8 8 8 9 9 8 5 5 10 11 11 11 12 11 9 7 10 10 10 7 7 9 11 12 13 13 13 14 15 16 17 15 9 8 9 8 7 7 7 6 6 6 6 6 6 6 5 4 4 4 4 3 3 1 1 0 1 1 2 2 2 3 3 3 4 4 5 6 6 6 6 7 8 8
3 4 5 6 6 6 6 6 7 7 6 8 8 9 9 8 8 8 7 5 4 8 12 15 13 10 11 8 5 10 12 12 12 13 14 15 15 16 16 11 12 10 6 10 7 8 7 7 6 6 5 5 6 6 5 5 4 4 4 3 3 3 3 2 2 1 0 0 1 2 1 1 2 3 3 4 4 4 4 5 5 6 6 7 8
3 6 7 5 5 5 6 7 6 6 6 6 7 8 8 7 7 8 8 8 8 6 3 4 11 13 6 6 10 13 14 14 15 15 17 18 18 18 17 13 10 7 4 4 5 6 7 6 6 5 5 5 5 4 4 4 4 4 4 4 3 3 3 2 1 1 0 1 0 1 1 1 1 2 3 4 4 5 5 5 6 6 6 6 7
4 4 5 4 3 4 5 5 6 6 7 8 8 7 8 7 7 7 7 8 7 5 4 5 5 8 12 12 12 13 15 16 16 17 18 20 21 19 11 8 8 6 6 6 6 5 5 5 5 5 5 5 4 4 4 4 4 4 4 4 4 3 3 2 2 1 1 0 1 0 1 0 1 2 2 2 3 4 4 5 5 6 6 6 7
4 4 4 3 2 3 4 4 4 4 5 6 7 8 7 7 8 9 7 6 6 5 5 6 7 8 10 9 11 14 14 15 15 14 14 12 9 8 8 8 8 9 8 6 6 5 6 7 6 7 6 6 6 6 6 5 5 5 4 4 4 2 2 2 2 1 0 0 1 1 1 1 1 2 3 3 3 3 4 4 5 5 5 7 7
4 4 4 4 4 5 4 4 4 6 4 5 6 7 8 7 6 6 6 6 6 7 6 5 5 6 8 8 9 9 11 13 17 13 9 9 7 7 8 8 8 9 9 8 7 7 6 7 7 7 6 6 6 6 6 5 5 5 5 5 4 3 2 3 3 1 1 0 0 1 1 1 1 2 2 3 3 3 3 4 5 5 5 6 6
6 9 10 8 6 5 5 5 5 5 4 4 5 6 6 6 6 6 6 7 7 7 7 6 7 7 9 8 9 10 12 9 8 8 8 7 7 7 6 7 9 9 8 7 7 7 8 8 7 7 6 6 6 5 5 5 5 5 5 4 4 3 2 2 2 1 1 1 0 0 1 1 1 1 2 2 2 3 3 4 4 5 5 6 6
5 5 6 6 6 7 6 6 5 5 4 5 5 5 6 6 7 7 8 8 8 8 8 8 8 8 8 9 9 7 11 10 9 8 8 8 7 6 6 6 8 9 9 8 7 8 8 8 7 7 6 5 5 5 4 4 4 4 4 4 3 3 3 2 1 1 1 0 0 0 1 1 1 2 1 1 3 3 3 4 3 3 4 5 5
5 6 7 8 8 8 7 7 7 6 6 7 7 8 9 9 8 9 9 8 9 11 11 10 9 7 5 10 13 11 11 10 8 8 8 8 8 8 7 7 7 8 8 8 7 7 7 7 7 7 6 5 4 4 4 3 3 4 4 3 3 3 3 2 1 1 1 0 0 0 0 1 1 2 2 2 3 4 2 3 3 3 3 3 3
6 7 8 8 8 8 8 8 9 9 9 10 9 9 10 10 10 10 11 11 10 12 14 13 11 10 15 21 17 17 13 9 9 10 8 8 8 7 7 7 8 8 8 8 8 8 7 7 7 7 6 4 3 2 2 2 1 1 2 2 2 2 2 2 2 2 2 2 1 2 2 2 2 3 3 3 3 3 4 4 4 4 4 3 3
7 7 7 8 8 9 9 9 9 9 10 10 10 10 10 11 10 12 14 11 10 11 13 14 13 12 12 15 17 15 11 9 9 10 9 8 8 7 7 6 7 7 7 7 7 7 7 7 7 6 6 5 4 3 3 3 3 3 3 3 3 3 3 2 2 2 2 2 2 3 3 3 3 3 4 4 4 4 4 4 4 4 3 3 3
7 8 8 9 9 9 8 9 10 10 10 12 13 12 11 12 11 11 13 13 12 11 10 11 10 10 9 11 12 11 10 9 9 9 8 8 8 7 6 5 6 7 7 8 7 7 7 7 7 6 5 5 4 4 4 4 4 4 4 3 3 4 3 3 3 3 3 3 3 3 3 3 4 4 4 4 4 4 4 4 4 3 4 3 3
7 8 8 8 8 10 10 10 10 10 10 11 10 10 10 10 10 10 11 11 12 12 12 11 11 12 12 11 9 8 8 9 8 8 8 8 7 6 6 6 7 8 8 8 7 7 7 7 6 6 6 5 4 4 5 5 4 4 4 4 4 4 4 4 4 3 3 3 3 3 3 4 4 3 4 4 4 4 4 4 4 3 4 3 3
7 8 8 9 9 9 10 9 8 9 9 10 10 9 9 10 10 10 10 11 11 12 12 12 10 10 10 9 9 8 8 8 8 8 7 7 7 7 7 7 8 8 8 7 7 7 7 6 6 5 5 5 5 5 5 5 5 5 5 5 5 4 4 4 4 4 4 4 4 4 4 4 4 4 4 5 5 4 5 4 4 3 3 4 3
8 8 8 9 10 10 10 10 10 11 11 11 10 12 10 9 10 11 11 11 11 10 9 9 10 10 10 9 9 9 8 8 8 8 8 8 8 7 7 7 8 8 8 7 7 6 6 6 6 6 6 6 6 6 6 6 6 6 6 6 6 6 6 6 5 5 4 4 4 4 4 5 5 5 4 4 5 5 5 5 5 4 4 4 5
8 9 9 9 10 10 10 9 11 13 11 11 10 11 10 10 10 10 10 9 9 10 10 9 9 9 9 9 9 8 8 8 8 8 8 8 8 8 8 8 8 8 7 7 7 7 7 7 7 7 7 7 7 7 7 7 7 7 7 7 7 8 9 11 6 5 4 4 4 4 4 4 4 4 4 5 5 5 5 5 5 5 5 5 5
6 7 8 8 9 10 10 10 11 10 11 11 12 12 12 12 12 11 11 11 9 9 9 9 8 8 9 9 8 8 8 8 9 9 8 8 8 8 8 8 8 8 8 8 7 8 8 7 7 7 7 7 7 7 7 7 7 7 7 6 9 13 11 11 7 6 9 6 3 3 3 3 4 4 4 4 4 4 4 5 5 6 6 5 5
7 8 9 9 10 10 10 10 10 10 11 11 11 11 11 11 10 10 10 11 11 11 10 10 9 9 9 9 9 9 8 9 9 9 9 8 8 8 8 8 8 8 7 7 7 6 7 7 8 7 7 7 7 7 7 7 7 7 7 8 11 10 10 10 7 10 9 4 4 3 3 3 3 3 3 4 5 5 5 5 5 5 5 5 5
10 11 13 13 12 12 11 10 10 10 11 11 11 11 11 11 11 10 10 11 11 11 11 11 11 11 11 10 10 11 11 11 11 10 8 8 8 8 8 8 8 7 7 7 7 7 7 7 7 7 7 7 7 7 7 7 7 7 8 10 11 11 11 11 8 11 12 9 3 4 3 4 4 4 4 4 4 4 5 6 5 5 5 5 5
Wind_Direction
190 190 188 193 189 188 189 191 195 196 197 196 199 200 200 200 201 203 191 199 198 201 204 207 206 208 212 210 212 206 200 199 197 199 205 221 231 234 231 220 221 231 232 234 228 224 227 232 234 231 219 231 236 242 240 231 225 232 232 229 234 219 218 235 255 272 273 250 261 275 278 273 280 259 262 265 257 231 228 244 251 252 251 250 252
191 188 188 190 191 190 192 193 195 196 198 197 199 199 199 198 197 193 195 197 197 205 206 207 208 209 212 212 211 211 202 198 198 197 205 211 224 231 234 235 238 237 233 235 230 224 224 231 236 232 219 229 240 243 247 246 235 237 232 233 239 240 217 236 255 269 282 272 269 262 265 245 266 258 258 272 281 274 250 236 235 238 243 250 249
189 185 186 188 190 190 189 191 190 194 196 197 201 202 201 200 195 195 202 204 200 207 207 208 204 204 211 214 211 212 209 205 204 204 205 208 213 220 221 221 227 234 234 233 234 230 228 232 238 230 217 223 231 240 243 242 244 243 241 237 239 244 235 223 248 264 273 280 277 279 273 258 251 274 267 266 269 269 272 267 262 253 237 240 253
186 184 185 189 189 187 188 190 191 193 197 201 202 203 202 200 195 198 201 205 200 201 205 205 202 203 209 213 213 213 210 209 207 207 208 209 212 215 218 221 227 232 239 239 233 231 233 237 241 235 227 228 232 236 234 235 236 237 243 242 241 244 242 230 227 251 268 279 277 272 279 277 274 270 268 261 265 268 267 275 266 262 261 260 256
186 185 188 191 190 190 190 190 192 196 199 200 201 201 202 200 196 199 200 205 206 198 198 201 204 205 211 214 214 213 212 211 210 213 213 212 214 217 218 219 224 232 237 243 242 233 235 238 244 237 232 236 240 239 239 233 233 240 249 249 246 247 242 237 241 237 253 265 275 266 268 267 267 268 265 273 274 268 261 258 265 270 265 265 267
185 184 187 191 191 191 191 192 195 197 199 200 200 199 199 198 196 197 199 203 204 202 196 199 203 207 211 213 213 213 211 211 211 214 216 214 213 218 219 220 225 227 233 237 241 241 235 238 237 234 242 236 242 245 244 240 239 243 247 250 252 252 250 251 247 248 250 259 267 278 264 270 275 262 265 259 277 286 281 274 273 261 253 260 260
182 182 185 190 189 191 189 191 193 196 196 198 197 197 198 198 198 198 197 203 203 204 203 203 204 207 208 210 214 213 211 212 213 212 216 218 215 216 222 222 224 225 231 235 236 235 235 237 233 235 240 234 239 243 243 253 254 243 240 246 247 247 254 257 249 255 257 262 266 263 271 263 257 273 267 251 262 267 280 290 281 256 246 246 259
178 180 183 187 187 188 189 189 192 194 193 192 193 195 196 197 198 198 197 201 205 207 207 206 205 205 209 211 213 212 210 211 212 212 213 215 217 218 219 224 226 227 229 231 233 236 236 237 238 233 231 234 235 240 239 242 246 260 246 249 250 259 262 266 271 274 275 278 279 285 281 284 282 271 260 249 264 255 237 253 272 276 268 257 255
176 178 181 186 187 184 184 188 190 189 188 186 189 192 193 194 194 195 196 201 205 208 210 209 206 206 210 211 211 210 213 214 213 210 211 213 217 222 221 223 225 230 234 234 233 234 237 238 239 239 235 233 232 234 240 240 250 260 254 261 265 267 272 275 278 278 279 280 283 286 284 283 289 289 279 249 253 268 267 226 261 261 266 289 276
175 180 185 186 183 178 180 183 185 185 186 187 188 190 193 194 195 195 197 201 204 207 209 209 208 206 207 208 208 211 215 217 208 200 202 212 214 220 223 225 227 231 233 236 237 236 237 242 243 236 225 221 224 228 232 235 234 242 254 259 261 267 268 271 275 279 280 281 286 291 293 293 300 294 287 269 265 268 255 231 253 274 291 271 272
174 181 187 186 180 179 181 185 183 186 189 190 190 193 196 197 199 200 202 203 204 202 204 206 209 211 211 210 210 213 217 218 201 194 200 206 216 221 221 225 224 227 230 232 238 240 243 242 247 234 216 218 227 229 233 231 233 236 241 245 250 257 269 270 272 276 278 280 282 286 286 290 295 299 292 290 290 303 270 226 250 286 285 296 296
181 184 184 177 177 180 185 184 185 187 186 190 190 192 195 196 197 197 198 200 200 201 203 207 211 214 214 215 216 217 221 215 194 194 197 201 207 221 228 229 228 226 229 232 236 238 241 245 244 246 241 240 243 229 223 228 234 236 238 241 240 242 243 250 265 272 276 280 282 282 287 287 289 292 291 292 305 63 284 253 251 263 281 281 278
180 180 181 179 181 181 181 182 184 186 189 190 190 189 192 194 196 197 201 202 200 203 207 209 211 212 214 215 219 221 226 205 192 193 195 195 201 212 230 234 234 233 231 230 233 235 238 240 246 245 250 227 227 243 251 238 221 229 238 241 244 240 241 240 240 248 265 270 276 278 276 281 284 285 288 291 20 112 285 280 267 269 256 269 265
178 180 179 180 180 180 181 183 186 189 188 189 189 191 193 197 201 202 203 200 202 206 208 210 210 210 213 217 220 224 227 202 190 192 193 194 197 201 225 231 236 241 240 235 232 234 234 238 241 245 245 242 238 236 239 245 253 246 237 235 240 242 235 234 236 238 239 249 261 268 268 259 268 278 284 282 280 160 236 271 280 273 271 262 261
176 177 180 180 179 181 183 185 188 188 187 187 189 192 194 197 199 201 201 201 200 203 206 209 211 213 214 217 219 224 227 201 186 190 193 193 195 195 219 227 236 240 242 242 238 234 236 236 239 245 247 244 239 231 238 245 253 267 271 273 272 275 276 266 249 231 222 225 241 247 255 257 262 271 274 274 276 160 230 262 275 276 273 277 277
173 176 180 182 184 184 184 185 188 187 187 187 191 194 194 194 196 197 202 204 205 205 207 210 211 213 215 217 221 225 227 197 189 190 191 193 188 195 211 221 231 238 240 240 237 235 235 237 240 242 246 246 238 217 225 241 255 265 269 271 276 277 277 271 255 245 251 249 240 247 255 272 286 281 286 293 296 172 213 238 258 262 266 273 271
181 182 186 186 186 185 186 186 187 188 187 189 193 194 194 195 196 194 200 204 204 205 206 208 211 215 216 216 220 226 230 195 189 189 191 188 180 203 203 214 224 232 238 236 237 237 236 235 234 242 246 246 239 221 220 215 243 256 264 269 274 281 284 288 275 249 234 236 242 260 292 302 284 275 271 264 252 257 268 259 258 258 262 268 272
182 181 186 188 187 186 186 186 187 188 188 192 193 195 196 197 197 195 200 204 209 209 208 212 215 217 217 218 217 223 229 200 184 188 189 182 186 198 202 209 224 228 236 236 237 238 237 229 233 240 245 247 242 226 218 194 234 246 258 267 273 277 282 285 290 281 236 208 227 242 242 251 266 270 271 267 262 247 254 268 273 278 272 265 270
182 183 186 186 185 184 184 185 187 188 191 194 195 195 196 197 197 196 202 205 211 211 211 213 215 216 218 220 216 223 231 210 180 187 187 184 190 203 205 212 222 231 230 235 233 236 238 228 222 232 241 249 248 236 215 195 234 241 254 266 268 272 275 283 288 293 313 349 315 302 293 270 267 278 278 264 244 234 237 259 283 281 285 285 285
181 179 181 182 184 183 184 185 189 192 192 194 196 197 194 195 196 195 199 203 207 211 209 212 215 217 217 220 221 221 227 230 187 185 184 186 191 199 209 217 229 228 226 231 236 238 234 239 225 218 231 242 249 248 225 199 226 246 258 263 268 265 284 310 344 315 307 307 277 280 283 294 294 297 299 301 290 277 282 277 280 281 280 284 280
163 172 179 184 184 184 186 188 190 194 195 194 194 195 194 196 195 196 199 203 208 211 212 213 217 221 222 222 226 224 223 224 191 181 185 187 191 198 208 214 219 222 226 226 230 236 237 233 242 213 214 227 236 242 239 218 219 239 250 256 262 22 61 306 339 323 313 311 310 301 300 309 314 313 320 323 321 324 315 306 299 292 292 291 290
174 177 179 185 188 190 191 192 192 195 197 192 191 194 194 195 196 196 200 201 205 208 209 213 217 223 225 227 228 228 222 209 219 180 186 189 191 198 208 214 214 219 225 231 231 235 236 238 236 215 201 211 223 231 234 228 219 226 239 258 349 26 51 116 164 216 254 280 294 307 314 320 324 327 327 328 328 327 324 317 309 303 295 291 294
172 174 176 183 186 187 189 186 186 193 193 191 187 188 188 190 193 192 193 198 202 207 213 220 223 222 229 231 236 235 230 207 207 194 188 192 193 197 208 217 208 213 225 232 231 233 237 235 241 193 182 197 209 219 227 220 194 226 242 71 96 112 140 180 167 206 229 255 279 292 301 310 321 326 326 327 326 330 321 314 308 304 299 291 285
167 173 176 183 182 185 187 188 189 195 193 188 189 192 192 191 193 195 194 199 205 216 222 223 228 230 235 237 236 238 234 230 197 200 188 193 193 197 207 218 216 213 221 233 235 235 235 238 202 141 160 168 174 168 160 165 167 143 136 121 121 146 148 164 191 188 216 237 256 277 297 314 316 320 323 324 320 319 311 307 306 303 301 299 294
170 178 180 183 184 188 190 191 193 195 194 188 189 193 195 191 196 201 205 206 214 220 222 220 223 228 231 233 236 236 235 223 215 195 193 187 195 199 207 212 219 218 220 231 234 242 117 106 119 143 146 141 136 132 132 129 118 133 125 123 134 159 172 177 172 173 211 238 261 288 303 311 314 309 317 312 305 303 304 305 303 301 303 304 302
172 178 181 183 186 189 190 193 195 194 192 190 192 193 194 193 196 195 199 202 207 212 216 218 222 225 230 232 233 234 227 217 211 200 188 192 198 203 206 210 215 215 217 251 32 100 113 116 117 118 121 128 141 161 162 137 127 110 123 159 179 175 174 157 156 198 230 257 295 303 314 323 324 320 304 296 300 306 313 312 311 313 321 322 321
174 176 183 185 185 190 192 194 193 192 192 191 193 194 195 195 195 195 196 203 209 214 214 219 223 226 229 232 232 232 227 214 204 207 189 189 199 201 209 219 220 216 218 224 172 120 118 129 133 121 110 119 95 94 106 112 113 130 161 190 168 145 139 171 177 188 219 303 314 324 331 327 313 299 303 309 303 306 318 320 320 324 330 332 325
182 186 186 186 187 189 192 191 190 191 192 193 195 197 199 199 198 197 197 198 201 210 218 219 219 222 223 222 221 221 220 228 210 204 201 196 199 194 189 195 186 189 197 198 198 163 133 106 117 129 131 135 135 135 131 133 143 161 171 161 144 119 93 42 292 200 199 323 327 318 315 306 304 315 314 314 315 322 331 331 337 332 336 335 331
181 182 184 186 188 186 190 189 195 197 192 195 192 186 201 202 201 205 204 198 199 199 205 208 208 212 214 213 210 213 212 210 210 202 204 193 192 191 186 191 189 186 190 160 144 129 134 150 153 151 159 151 145 142 142 152 160 161 160 156 147 157 180 197 153 101 87 312 337 322 310 314 316 322 323 319 325 324 328 333 334 337 337 342 339
176 186 187 189 184 181 188 193 196 197 195 186 145 116 48 58 23 238 210 199 200 211 204 207 204 207 216 219 210 207 209 215 209 186 193 189 197 193 191 185 178 165 141 143 152 156 174 178 169 167 163 160 154 158 165 167 160 160 154 154 168 156 157 138 114 94 77 33 324 307 320 322 327 333 329 328 328 323 326 330 332 343 345 348 349
177 185 179 193 189 183 184 188 190 190 180 150 159 148 144 95 51 42 15 359 294 227 227 239 243 229 211 219 205 207 275 264 147 175 189 193 196 189 135 125 127 127 135 134 163 175 181 188 179 174 165 168 167 166 161 159 162 159 154 156 146 136 133 101 78 69 85 129 248 313 322 340 336 336 329 333 335 324 330 337 344 348 348 352 359
175 179 179 181 176 185 190 188 181 164 152 159 157 164 167 177 166 44 38 31 33 26 355 326 304 290 254 227 208 141 114 208 179 175 179 157 135 126 124 125 133 143 157 154 165 189 185 178 172 173 168 161 154 147 154 158 159 158 155 153 137 117 114 104 73 226 128 102 347 6 1 355 338 327 320 330 332 336 344 344 358 359 353 350 357
165 164 167 162 168 180 187 180 173 166 162 161 173 177 183 181 172 157 73 60 68 65 48 35 20 358 320 289 237 210 192 140 126 120 123 124 120 122 126 134 142 151 148 167 170 164 172 170 158 150 150 146 146 154 160 159 156 151 142 133 127 115 101 101 163 177 126 25 336 33 14 346 323 311 310 317 325 346 351 354 5 359 353 352 355
142 147 153 153 162 173 176 170 171 174 166 172 177 179 186 185 186 165 153 160 104 77 68 51 31 26 42 48 85 83 98 110 110 112 116 117 121 121 116 115 121 139 160 179 160 149 146 139 133 134 137 140 149 151 149 139 132 127 120 108 101 104 118 135 164 152 162 171 8 46 2 355 339 324 337 331 328 329 351 359 8 359 1 359 356
122 88 90 126 159 169 181 186 178 164 162 171 174 179 179 175 160 159 176 176 188 178 167 50 35 29 51 61 84 102 108 112 118 121 121 124 125 125 116 115 124 129 102 108 109 119 120 118 124 131 137 142 141 137 128 126 127 128 123 125 126 132 142 147 135 106 52 111 108 64 3 319 342 309 314 333 340 349 356 0 12 7 0 359 2
100 113 124 133 135 146 164 173 180 184 194 196 196 190 193 172 160 173 177 185 173 131 89 58 56 49 65 73 96 106 110 115 122 125 130 133 141 139 128 130 122 111 94 81 80 72 96 117 123 130 126 118 117 117 119 124 127 128 130 133 139 144 142 141 124 120 91 306 81 11 275 256 343 329 317 335 342 349 354 356 357 2 356 5 354
87 96 110 122 108 117 129 145 170 173 178 183 183 185 179 156 175 182 170 145 126 109 113 122 112 83 69 69 84 90 94 103 107 115 124 133 126 104 103 103 106 106 100 99 99 100 114 122 128 134 132 133 134 132 130 130 130 128 125 125 124 142 118 87 72 92 119 118 50 35 320 6 351 348 329 341 350 352 353 348 340 340 344 347 338
62 85 105 103 115 113 117 123 104 82 133 163 174 176 174 162 144 140 127 121 118 131 131 131 115 103 101 107 106 103 98 94 89 72 61 59 61 86 97 101 104 110 116 120 122 129 123 117 114 113 117 122 124 127 127 129 134 132 127 125 127 102 161 141 144 141 123 327 53 49 318 345 341 331 317 324 344 347 350 347 338 337 342 360 6
71 56 62 70 82 106 117 118 125 137 141 151 155 152 141 129 125 116 114 121 126 118 115 107 102 100 111 122 121 123 108 94 87 88 74 67 72 69 79 106 113 110 108 110 117 116 112 103 101 103 105 106 109 112 117 121 125 127 130 132 132 133 149 99 110 118 131 83 111 357 351 341 316 329 319 321 336 344 341 336 336 337 348 356 6
79 92 72 78 94 88 105 110 104 101 93 86 76 73 76 70 76 93 107 111 109 106 98 90 85 97 116 126 120 106 95 97 94 98 97 88 80 82 90 100 106 111 112 116 109 101 99 99 96 88 86 85 95 102 106 115 118 122 125 123 122 116 107 95 80 101 84 53 24 310 354 340 357 306 293 327 341 334 328 327 333 335 351 348 354
74 76 74 65 82 99 87 87 87 86 96 98 100 95 97 97 95 90 89 82 91 96 93 88 79 62 47 73 76 88 101 101 91 79 78 77 77 75 75 77 85 91 94 94 91 88 88 86 83 82 78 77 76 88 102 116 127 131 123 128 130 130 127 108 84 55 53 238 290 338 344 343 351 323 323 350 283 282 298 293 302 328 337 352 351
82 90 91 91 85 91 100 99 102 92 92 89 88 93 99 98 101 102 104 102 102 104 102 95 89 85 78 80 79 81 87 90 98 103 98 89 79 70 66 66 66 74 80 86 90 93 88 81 80 79 83 74 79 73 72 77 49 62 84 91 98 112 112 88 51 18 343 338 336 337 338 335 323 296 285 286 297 306 296 295 305 305 324 330 345
75 80 87 94 91 93 93 95 93 94 95 98 96 93 94 95 96 102 102 99 99 104 108 110 111 106 100 95 92 90 86 80 73 77 79 77 76 75 70 68 70 70 71 71 68 69 76 75 72 67 65 61 50 48 49 43 27 39 53 57 54 52 53 42 35 13 356 338 331 328 310 302 289 293 300 295 296 295 297 294 292 306 310 312 314
85 84 82 83 89 86 81 90 85 85 90 98 100 102 104 106 105 104 106 106 107 102 93 96 95 92 89 79 79 82 86 84 83 84 79 73 63 64 60 61 67 73 70 68 64 68 77 83 84 84 80 74 64 56 55 47 36 42 32 37 51 32 28 28 15 5 351 340 332 317 312 310 303 295 296 296 290 295 292 290 289 299 315 316 323
92 95 96 86 75 83 79 82 92 95 92 98 97 95 97 101 103 103 102 101 99 98 100 97 94 93 88 84 76 71 70 74 73 73 75 77 76 74 74 68 66 67 69 67 64 69 77 82 88 87 85 79 69 64 58 52 45 39 37 23 26 28 19 3 354 338 322 308 307 307 307 305 311 309 314 310 305 294 291 290 287 285 276 288 297
93 96 99 98 91 88 86 85 82 84 82 91 92 88 89 93 93 94 95 97 97 101 99 98 93 85 88 88 85 79 76 81 83 84 84 82 79 73 68 67 66 65 64 65 65 65 67 72 79 84 79 74 63 60 59 53 49 45 35 36 22 13 356 337 328 318 312 306 307 310 308 308 304 315 314 311 310 312 311 307 290 282 295 292 289
96 96 93 97 95 94 91 93 93 92 90 88 85 87 80 78 86 91 94 97 101 100 90 92 92 93 91 87 87 86 82 79 80 78 75 72 71 69 69 68 71 71 68 64 62 65 66 66 66 66 61 58 59 51 45 42 40 37 38 32 25 2 359 344 320 309 307 305 297 292 312 312 317 318 320 314 314 313 315 306 316 310 305 307 306
105 102 97 95 95 94 92 91 92 93 93 88 87 85 83 85 82 84 87 87 77 83 82 79 78 85 87 86 87 88 89 90 86 83 78 72 68 66 64 65 65 65 65 62 55 52 52 52 50 50 53 49 48 47 43 36 36 29 28 27 21 2 335 320 305 310 318 307 287 293 301 309 323 329 333 331 331 332 321 326 323 325 321 312 306
86 94 95 91 92 95 98 98 100 99 100 101 99 97 97 98 98 97 97 94 82 81 85 87 83 82 83 84 84 82 82 82 81 80 79 76 73 71 70 69 68 66 65 61 56 51 49 48 46 47 46 44 41 40 41 35 28 28 21 21 360 340 331 325 316 348 303 281 294 305 312 317 332 330 335 333 339 335 338 340 341 336 325 320 313
67 74 79 80 86 93 93 92 94 95 96 97 97 97 95 94 91 91 90 91 91 92 90 84 83 79 83 86 86 85 83 83 82 80 77 75 73 70 68 66 68 70 71 69 65 59 56 52 49 46 43 39 38 38 35 33 27 19 17 359 341 334 341 336 333 343 335 354 339 346 341 345 346 352 350 347 340 345 346 347 347 341 337 332 327
80 82 87 90 88 83 76 69 77 81 84 88 90 90 90 90 90 90 90 86 83 81 82 85 88 87 83 83 86 89 86 82 78 76 68 70 71 69 71 71 70 68 65 63 62 59 54 52 49 47 42 40 39 39 36 32 28 16 354 347 358 1 2 1 2 345 342 328 340 359 5 5 357 2 11 6 347 353 344 331 340 338 338 338 339